Weather observations for the past three days for
Brooksville-Tampa Bay Regional Airport
Metric (Imperial)
Date Time (edt) Wind (kph) Vis. (km) Weather Sky Cond. Temperature (ºC) Relative Humidity Wind Chill (°C) Heat Index (°C) Pressure Precipitation (cm)
Air Dwpt 6 hour altimeter (cm) sea level (mb) 1 hr 3 hr 6 hr
Max. Min.
25 00:53 E 6 16.09 Partly Cloudy SCT090 26 0 0% 76.1 1014.2
24 23:53 Calm 16.09 Mostly Cloudy BKN070 BKN085 26 0 0% 76.07 1013.9
24 22:53 Calm 16.09 Mostly Cloudy SCT070 BKN085 26 0 0% 76.07 1014.1
24 21:53 NW 7 16.09 A Few Clouds FEW075 27 0 0% 76.05 1013.8
24 20:53 W 7 16.09 Mostly Cloudy BKN070 28 0 0% 76.05 1013.5
24 19:53 W 19 16.09 Mostly Cloudy FEW022 BKN085 28 0 34.4 28.3 0% 76 1013.0
24 18:53 NW 19 16.09 Mostly Cloudy BKN085 31 0 0% 75.97 1012.6
24 17:53 NW 19 16.09 Overcast OVC080 30 0 0% 75.97 1012.8
24 16:53 W 26 16.09 Overcast OVC075 31 0 0% 76 1013.1
24 14:53 W 24 G 37 16.09 Mostly Cloudy BKN070 33.9 18.9 41% 36 76.02 1013.3
24 13:53 S 7 16.09 A Few Clouds FEW065 33.9 18.3 34.4 23.3 40% 35 76.05 1013.5
24 11:53 Vrbl 7 16.09 Fair CLR 31.7 20 50% 34 76.12 1014.5
24 10:53 Vrbl 6 16.09 Fair CLR 28.9 21.1 63% 31 76.2 1015.6
24 08:53 S 7 16.09 Fair CLR 23.3 21.1 88% 76.23 1015.8
24 07:53 E 6 16.09 Fair CLR 18.3 16.1 22.2 17.8 87% 76.15 1015.0
24 06:53 Calm 16.09 Fair CLR 18.3 16.1 87% 76.12 1014.8
24 05:53 Calm 16.09 Fair CLR 19 0 0% 76.12 1014.7
24 04:53 Calm 16.09 Fair CLR 19 0 0% 76.12 1014.6
24 03:53 Calm 16.09 Fair CLR 20 0 0% 76.12 1014.7
24 02:53 Calm 16.09 Fair CLR 20 0 0% 76.15 1015.0
24 01:53 NE 6 16.09 Fair CLR 22 0 28.9 21.1 0% 76.17 1015.4
24 00:53 SE 6 16.09 Fair CLR 23 0 0% 76.2 1015.6
23 23:53 Calm 16.09 Fair CLR 22 0 0% 76.2 1015.8
23 22:53 E 6 16.09 Fair CLR 24 0 0% 76.2 1015.7
23 21:53 N 6 16.09 Fair CLR 27.2 19.4 62% 29 76.17 1015.2
23 20:53 NW 11 16.09 Fair CLR 28.3 18.3 55% 29 76.15 1014.9
23 19:53 NW 13 16.09 Fair CLR 31.1 17.8 34.4 31.1 45% 32 76.12 1014.5
23 18:53 NW 20 16.09 A Few Clouds FEW060 32.8 17.8 41% 34 76.1 1014.2
23 17:53 NW 19 16.09 Fair CLR 33.3 17.8 40% 34 76.1 1014.3
23 16:53 NW 22 16.09 A Few Clouds FEW070 33 0 0% 76.12 1014.5
23 15:53 W 20 16.09 Mostly Cloudy BKN075 34 0 0% 76.1 1014.3
23 14:53 Vrbl 7 16.09 Partly Cloudy SCT075 34.4 11.7 25% 33 76.12 1014.7
23 13:53 NE 13 16.09 Fair CLR 33.9 13.9 34.4 22.8 30% 33 76.17 1015.4
23 12:53 E 17 G 30 16.09 Fair CLR 32.8 16.1 37% 33 76.2 1015.5
23 10:53 SE 15 16.09 Fair CLR 28.9 17.8 51% 30 76.28 1016.8
23 09:53 S 11 16.09 Fair CLR 26.7 17.8 58% 28 76.33 1017.3
23 08:53 SE 13 16.09 Fair CLR 23.3 19.4 79% 76.33 1017.4
23 07:53 E 11 16.09 Fair CLR 19.4 18.3 22.2 19.4 93% 76.3 1016.9
23 06:53 E 7 16.09 Fair CLR 19.4 14.4 73% 76.28 1016.5
23 05:53 E 9 16.09 Fair CLR 21 0 0% 76.23 1015.9
23 04:53 Calm 16.09 Fair CLR 19 0 0% 76.25 1016.5
23 03:53 E 7 16.09 Fair CLR 22 0 0% 76.28 1016.5
23 02:53 SE 9 16.09 Fair CLR 22 0 0% 76.28 1016.5
23 01:53 SE 11 16.09 Fair CLR 22 0 30.6 22.2 0% 76.3 1017.1
23 00:53 E 7 16.09 Fair CLR 23 0 0% 76.33 1017.4
22 23:53 E 11 16.09 Mostly Cloudy BKN060 24 0 0% 76.28 1016.8
22 22:53 E 9 16.09 Fair CLR 24 0 0% 76.25 1016.3
22 21:53 NE 6 16.09 Fair CLR 27.2 15.6 49% 28 76.17 1015.2
22 19:53 E 13 16.09 Fair CLR 31.7 16.1 34.4 31.7 39% 32 76.02 1013.4
22 18:53 E 13 16.09 Fair CLR 32.8 16.7 38% 33 76.02 1013.4
22 17:53 E 11 16.09 Mostly Cloudy FEW065 BKN085 33.9 16.7 36% 34 76.02 1013.4
22 16:53 E 15 16.09 A Few Clouds FEW060 34.4 16.7 35% 35 76.07 1013.8
22 15:53 E 17 G 28 16.09 Partly Cloudy SCT060 33.3 17.8 40% 34 76.1 1014.4
22 13:53 E 7 16.09 A Few Clouds FEW075 32.8 17.8 32.8 23.9 41% 34 76.23 1015.8
22 12:53 E 11 16.09 A Few Clouds FEW047 30 18.3 49% 31 76.28 1016.7
22 11:53 Vrbl 6 16.09 Mostly Cloudy BKN042 30.6 18.3 48% 32 76.28 1016.7
22 10:53 E 15 16.09 Fair CLR 28.3 18.9 57% 30 76.28 1016.6
22 09:53 E 11 16.09 Fair CLR 27.2 21.1 69% 29 76.28 1016.8
22 08:53 E 15 16.09 Fair CLR 23.9 21.1 84% 24 76.28 1016.7
22 07:53 E 7 16.09 Fair CLR 21.7 20 22.8 21.7 90% 76.2 1015.8
22 06:53 NE 7 16.09 Fair CLR 21.7 20.6 94% 76.17 1015.4
22 05:53 NE 9 16.09 Fair CLR 22 0 0% 76.12 1014.6
22 04:53 E 7 16.09 Fair CLR 22 0 0% 76.15 1014.8
22 03:53 NE 6 16.09 Fair CLR 22 0 0% 76.12 1014.6
22 02:53 NE 7 16.09 Fair CLR 23 0 0% 76.12 1014.8
22 01:53 E 9 16.09 Fair CLR 22 0 28.3 22.2 0% 76.1 1014.4
Date Time (edt) Wind (kph) Vis. (km) Weather Sky Cond. Air Dwpt Max. Min. Relative Humidity Wind Chill (°C) Heat Index (°C) altimeter (cm) sea level (mb) 1 hr 3 hr 6 hr
6 hour
Temperature (ºC) Pressure Precipitation (cm)